When you browse on this site, cookies collect data to enhance your experience and personalize the content and advertising you see.
Visit our Privacy Policy to learn more. By continuing to use the site, you agree to this use of cookies and data.
  • In Czech Republic
  • List of Countries
  • For 7 days
  • Water Temperature
  • Satellite Maps
  • Weather Map
  • Weather Widgets
  • user-avatar
    Login

    Hourly Weather Goiania

    Today, 24 January, Thursday

    Time Temperature Precipitation Wind Pressure Humidity
    00:00 +25°C° 0.6 mm 3 mps 699 mmHg 85%
    01:00 +24°C° 0 mm 3 mps 699 mmHg 85%
    02:00 +24°C° 0 mm 2 mps 698 mmHg 86%
    03:00 +24°C° 0 mm 2 mps 698 mmHg 87%
    04:00 +23°C° 0 mm 2 mps 698 mmHg 87%
    05:00 +23°C° 0 mm 2 mps 698 mmHg 87%
    06:00 +23°C° 0 mm 1 mps 698 mmHg 87%
    07:00 +25°C° 0 mm 2 mps 699 mmHg 80%
    08:00 +27°C° 0 mm 3 mps 700 mmHg 73%
    09:00 +28°C° 0 mm 4 mps 700 mmHg 66%
    10:00 +30°C° 0 mm 4 mps 700 mmHg 61%
    11:00 +31°C° 0 mm 3 mps 700 mmHg 56%
    12:00 +33°C° 0 mm 3 mps 700 mmHg 51%
    13:00 +34°C° 0 mm 3 mps 700 mmHg 50%
    14:00 +34°C° 0 mm 2 mps 699 mmHg 48%
    15:00 +33°C° 0 mm 1 mps 699 mmHg 47%
    16:00 +32°C° 0 mm 1 mps 698 mmHg 52%
    17:00 +31°C° 0 mm 1 mps 698 mmHg 58%
    18:00 +29°C° 0 mm 1 mps 697 mmHg 64%
    19:00 +28°C° 0.1 mm 1 mps 698 mmHg 67%
    20:00 +27°C° 0.1 mm 1 mps 698 mmHg 70%
    21:00 +24°C° 0.1 mm 0 mps 698 mmHg 73%
    22:00 +25°C° 0 mm 1 mps 699 mmHg 74%
    23:00 +25°C° 0 mm 1 mps 699 mmHg 76%

    Tomorrow, 25 January, Friday

    Time Temperature Precipitation Wind Pressure Humidity
    00:00 +24°C° 0 mm 1 mps 699 mmHg 78%
    01:00 +24°C° 0 mm 1 mps 698 mmHg 79%
    02:00 +24°C° 0 mm 1 mps 698 mmHg 80%
    03:00 +23°C° 0 mm 2 mps 697 mmHg 81%
    04:00 +23°C° 0 mm 2 mps 698 mmHg 82%
    05:00 +23°C° 0 mm 2 mps 698 mmHg 82%
    06:00 +21°C° 0 mm 2 mps 698 mmHg 83%
    07:00 +24°C° 0 mm 2 mps 699 mmHg 76%
    08:00 +26°C° 0 mm 3 mps 699 mmHg 69%
    09:00 +28°C° 0 mm 3 mps 700 mmHg 63%
    10:00 +30°C° 0 mm 3 mps 700 mmHg 57%
    11:00 +31°C° 0 mm 3 mps 700 mmHg 52%
    12:00 +34°C° 0 mm 3 mps 700 mmHg 46%
    13:00 +34°C° 0 mm 3 mps 699 mmHg 48%
    14:00 +33°C° 0 mm 3 mps 699 mmHg 49%
    15:00 +33°C° 0 mm 3 mps 698 mmHg 51%
    16:00 +31°C° 0 mm 2 mps 698 mmHg 54%
    17:00 +31°C° 0 mm 2 mps 698 mmHg 58%
    18:00 +30°C° 0 mm 1 mps 697 mmHg 61%
    19:00 +29°C° 0.4 mm 1 mps 698 mmHg 66%
    20:00 +27°C° 0.4 mm 1 mps 698 mmHg 71%
    21:00 +25°C° 0.4 mm 1 mps 698 mmHg 76%
    22:00 +25°C° 0.1 mm 1 mps 698 mmHg 78%
    23:00 +24°C° 0.1 mm 1 mps 699 mmHg 80%

    Day after tomorrow, 26 January, Saturday

    Time Temperature Precipitation Wind Pressure Humidity
    00:00 +22°C° 0.1 mm 0 mps 699 mmHg 82%
    01:00 +22°C° 0.6 mm 0 mps 698 mmHg 83%
    02:00 +22°C° 0.6 mm 0 mps 698 mmHg 83%
    03:00 +21°C° 0.6 mm 0 mps 697 mmHg 84%
    04:00 +21°C° 0 mm 0 mps 697 mmHg 85%
    05:00 +23°C° 0 mm 1 mps 697 mmHg 85%
    06:00 +23°C° 0 mm 1 mps 698 mmHg 86%
    07:00 +24°C° 0.1 mm 1 mps 698 mmHg 81%
    08:00 +26°C° 0.1 mm 2 mps 699 mmHg 76%
    09:00 +27°C° 0.1 mm 3 mps 699 mmHg 71%
    10:00 +29°C° 0.3 mm 3 mps 699 mmHg 66%
    11:00 +30°C° 0.3 mm 3 mps 699 mmHg 60%
    12:00 +31°C° 0.3 mm 3 mps 699 mmHg 55%
    13:00 +31°C° 0.6 mm 3 mps 699 mmHg 56%
    14:00 +31°C° 0.6 mm 3 mps 699 mmHg 57%
    15:00 +31°C° 0.6 mm 2 mps 698 mmHg 59%
    16:00 +29°C° 1.5 mm 2 mps 698 mmHg 65%
    17:00 +28°C° 1.5 mm 1 mps 698 mmHg 72%
    18:00 +27°C° 1.5 mm 1 mps 698 mmHg 79%
    19:00 +26°C° 2.4 mm 1 mps 698 mmHg 81%
    20:00 +25°C° 2.4 mm 1 mps 699 mmHg 84%
    21:00 +23°C° 2.4 mm 2 mps 699 mmHg 86%
    22:00 +23°C° 0.1 mm 2 mps 699 mmHg 87%
    23:00 +22°C° 0.1 mm 3 mps 699 mmHg 87%

    27 January, Sunday

    Time Temperature Precipitation Wind Pressure Humidity
    00:00 +21°C° 0.1 mm 4 mps 699 mmHg 88%
    01:00 +21°C° 0 mm 4 mps 698 mmHg 88%
    02:00 +21°C° 0 mm 4 mps 698 mmHg 88%
    03:00 +21°C° 0 mm 4 mps 697 mmHg 88%
    04:00 +21°C° 0 mm 4 mps 698 mmHg 88%
    05:00 +21°C° 0 mm 4 mps 698 mmHg 87%
    06:00 +21°C° 0 mm 4 mps 698 mmHg 87%
    07:00 +22°C° 0 mm 4 mps 699 mmHg 80%
    08:00 +25°C° 0 mm 5 mps 699 mmHg 73%
    09:00 +26°C° 0 mm 5 mps 700 mmHg 66%
    10:00 +27°C° 0.5 mm 5 mps 700 mmHg 66%
    11:00 +27°C° 0.5 mm 5 mps 700 mmHg 67%
    12:00 +28°C° 0.5 mm 5 mps 700 mmHg 67%
    13:00 +28°C° 2 mm 5 mps 699 mmHg 70%
    14:00 +27°C° 2 mm 4 mps 699 mmHg 73%
    15:00 +27°C° 2 mm 3 mps 698 mmHg 76%
    16:00 +26°C° 2.9 mm 3 mps 698 mmHg 80%
    17:00 +25°C° 2.9 mm 2 mps 698 mmHg 84%
    18:00 +24°C° 2.9 mm 2 mps 698 mmHg 88%
    19:00 +24°C° 2.3 mm 2 mps 699 mmHg 89%
    20:00 +23°C° 2.3 mm 2 mps 699 mmHg 89%
    21:00 +22°C° 2.3 mm 3 mps 700 mmHg 90%
    22:00 +21°C° 0.2 mm 2 mps 700 mmHg 91%
    23:00 +21°C° 0.2 mm 2 mps 700 mmHg 91%

    28 January, Monday

    Time Temperature Precipitation Wind Pressure Humidity
    00:00 +21°C° 0.2 mm 2 mps 700 mmHg 92%
    01:00 +21°C° 0 mm 2 mps 700 mmHg 91%
    02:00 +20°C° 0 mm 2 mps 699 mmHg 91%
    03:00 +21°C° 0 mm 1 mps 698 mmHg 91%
    04:00 +20°C° 0 mm 2 mps 699 mmHg 92%
    05:00 +20°C° 0 mm 2 mps 699 mmHg 92%
    06:00 +20°C° 0 mm 2 mps 699 mmHg 93%
    07:00 +21°C° 0 mm 3 mps 700 mmHg 89%
    08:00 +23°C° 0 mm 4 mps 701 mmHg 85%
    09:00 +25°C° 0 mm 4 mps 701 mmHg 81%
    10:00 +26°C° 0.1 mm 4 mps 701 mmHg 75%
    11:00 +28°C° 0.1 mm 4 mps 701 mmHg 70%
    12:00 +29°C° 0.1 mm 4 mps 701 mmHg 65%
    13:00 +29°C° 0.5 mm 4 mps 701 mmHg 65%
    14:00 +29°C° 0.5 mm 3 mps 700 mmHg 66%
    15:00 +29°C° 0.5 mm 3 mps 699 mmHg 66%
    16:00 +29°C° 0.4 mm 2 mps 699 mmHg 68%
    17:00 +29°C° 0.4 mm 1 mps 699 mmHg 71%
    18:00 +28°C° 0.4 mm 1 mps 699 mmHg 73%
    19:00 +27°C° 0 mm 1 mps 700 mmHg 75%
    20:00 +26°C° 0 mm 1 mps 700 mmHg 78%
    21:00 +24°C° 0 mm 1 mps 700 mmHg 80%
    22:00 +24°C° 0 mm 1 mps 700 mmHg 81%
    23:00 +23°C° 0 mm 1 mps 700 mmHg 83%

    29 January, Tuesday

    Time Temperature Precipitation Wind Pressure Humidity
    00:00 +23°C° 0 mm 1 mps 701 mmHg 85%
    01:00 +22°C° 0 mm 1 mps 700 mmHg 84%
    02:00 +21°C° 0 mm 2 mps 700 mmHg 83%
    03:00 +21°C° 0 mm 2 mps 699 mmHg 82%
    04:00 +21°C° 0 mm 2 mps 699 mmHg 82%
    05:00 +21°C° 0 mm 2 mps 700 mmHg 83%
    06:00 +21°C° 0 mm 3 mps 700 mmHg 83%
    07:00 +24°C° 0 mm 3 mps 700 mmHg 79%
    08:00 +25°C° 0 mm 4 mps 701 mmHg 75%
    09:00 +27°C° 0 mm 5 mps 702 mmHg 70%
    10:00 +29°C° 0.4 mm 5 mps 702 mmHg 67%
    11:00 +30°C° 0.4 mm 5 mps 702 mmHg 64%
    12:00 +32°C° 0.4 mm 4 mps 702 mmHg 61%
    13:00 +33°C° 0.1 mm 4 mps 701 mmHg 57%
    14:00 +33°C° 0.1 mm 4 mps 700 mmHg 53%
    15:00 +34°C° 0.1 mm 4 mps 700 mmHg 49%
    16:00 +33°C° 0 mm 4 mps 700 mmHg 54%
    17:00 +31°C° 0 mm 3 mps 699 mmHg 59%
    18:00 +30°C° 0 mm 2 mps 699 mmHg 64%
    19:00 +29°C° 0 mm 2 mps 699 mmHg 66%
    20:00 +28°C° 0 mm 2 mps 699 mmHg 69%
    21:00 +26°C° 0 mm 2 mps 700 mmHg 71%
    22:00 +26°C° 0 mm 2 mps 700 mmHg 72%
    23:00 +25°C° 0 mm 2 mps 700 mmHg 74%
    Show more